Time,TemperatureF,DewpointF,PressureIn,WindDirection,WindDirectionDegrees,WindSpeedMPH,WindSpeedGustMPH,Humidity,HourlyPrecipIn,Conditions,Clouds,dailyrainin,SoftwareType,DateUTC
2013-05-19 00:01:00,63.9,30.1,29.77,North,11,5.0,7.0,28,0.00,,,0.00,Wunderground v.1.15,2013-05-19 06:01:00,
2013-05-19 00:11:00,63.9,30.1,29.78,NW,310,6.0,6.0,28,0.00,,,0.00,Wunderground v.1.15,2013-05-19 06:11:00,
2013-05-19 00:16:00,63.9,30.1,29.78,WNW,300,5.0,6.0,28,0.00,,,0.00,Wunderground v.1.15,2013-05-19 06:16:00,
2013-05-19 00:26:00,63.8,30.0,29.79,WNW,302,6.0,9.0,28,0.00,,,0.00,Wunderground v.1.15,2013-05-19 06:26:00,
2013-05-19 00:36:00,63.3,31.3,29.80,WNW,302,8.0,9.0,30,0.00,,,0.00,Wunderground v.1.15,2013-05-19 06:36:00,
2013-05-19 00:46:00,62.6,31.5,29.79,WNW,301,9.0,12.0,31,0.00,,,0.00,Wunderground v.1.15,2013-05-19 06:46:00,
2013-05-19 00:56:00,62.1,31.9,29.79,NW,304,7.0,9.0,32,0.00,,,0.00,Wunderground v.1.15,2013-05-19 06:56:00,
2013-05-19 01:01:00,61.9,32.5,29.79,NNE,23,6.0,6.0,33,0.00,,,0.00,Wunderground v.1.15,2013-05-19 07:01:00,
2013-05-19 01:11:00,61.7,32.3,29.79,North,1,8.0,9.0,33,0.00,,,0.00,Wunderground v.1.15,2013-05-19 07:11:00,
2013-05-19 01:16:00,61.6,32.2,29.78,North,360,8.0,9.0,33,0.00,,,0.00,Wunderground v.1.15,2013-05-19 07:16:00,
2013-05-19 01:21:00,61.4,32.0,29.79,NNE,25,7.0,7.0,33,0.00,,,0.00,Wunderground v.1.15,2013-05-19 07:21:00,
2013-05-19 01:26:00,61.2,32.6,29.78,NNE,19,7.0,7.0,34,0.00,,,0.00,Wunderground v.1.15,2013-05-19 07:26:00,
2013-05-19 01:36:00,61.0,32.4,29.79,NW,319,6.0,9.0,34,0.00,,,0.00,Wunderground v.1.15,2013-05-19 07:36:00,
2013-05-19 01:46:00,60.9,32.3,29.79,NW,323,6.0,7.0,34,0.00,,,0.00,Wunderground v.1.15,2013-05-19 07:46:00,
2013-05-19 01:56:00,60.8,33.0,29.80,NNW,343,5.0,6.0,35,0.00,,,0.00,Wunderground v.1.15,2013-05-19 07:56:00,
2013-05-19 02:02:00,60.7,32.9,29.80,NNE,33,5.0,5.0,35,0.00,,,0.00,Wunderground v.1.15,2013-05-19 08:02:00,
2013-05-19 02:11:00,60.5,32.7,29.80,North,354,4.0,4.0,35,0.00,,,0.00,Wunderground v.1.15,2013-05-19 08:11:00,
2013-05-19 02:21:00,60.4,32.6,29.80,NW,323,2.0,2.0,35,0.00,,,0.00,Wunderground v.1.15,2013-05-19 08:21:00,
2013-05-19 02:31:00,60.3,32.5,29.80,NNE,29,2.0,4.0,35,0.00,,,0.00,Wunderground v.1.15,2013-05-19 08:31:00,
2013-05-19 02:36:00,60.2,32.4,29.79,NW,309,2.0,4.0,35,0.00,,,0.00,Wunderground v.1.15,2013-05-19 08:36:00,
2013-05-19 02:41:00,60.1,33.0,29.79,NW,316,1.0,1.0,36,0.00,,,0.00,Wunderground v.1.15,2013-05-19 08:41:00,
2013-05-19 02:46:00,59.9,32.9,29.80,NW,313,0.0,1.0,36,0.00,,,0.00,Wunderground v.1.15,2013-05-19 08:46:00,
2013-05-19 02:51:00,59.9,32.9,29.80,West,259,1.0,1.0,36,0.00,,,0.00,Wunderground v.1.15,2013-05-19 08:51:00,
2013-05-19 03:02:00,59.8,33.5,29.80,NNW,347,2.0,4.0,37,0.00,,,0.00,Wunderground v.1.15,2013-05-19 09:02:00,
2013-05-19 03:11:00,59.6,33.3,29.80,WNW,290,1.0,1.0,37,0.00,,,0.00,Wunderground v.1.15,2013-05-19 09:11:00,
2013-05-19 03:16:00,59.6,33.3,29.80,WNW,302,2.0,4.0,37,0.00,,,0.00,Wunderground v.1.15,2013-05-19 09:16:00,
2013-05-19 03:21:00,59.6,33.3,29.80,WNW,301,2.0,2.0,37,0.00,,,0.00,Wunderground v.1.15,2013-05-19 09:21:00,
2013-05-19 03:31:00,59.5,33.9,29.79,NW,321,2.0,5.0,38,0.00,,,0.00,Wunderground v.1.15,2013-05-19 09:31:00,
2013-05-19 03:36:00,59.4,33.8,29.79,NE,39,2.0,5.0,38,0.00,,,0.00,Wunderground v.1.15,2013-05-19 09:36:00,
2013-05-19 03:46:00,59.5,33.9,29.79,North,354,2.0,2.0,38,0.00,,,0.00,Wunderground v.1.15,2013-05-19 09:46:00,
2013-05-19 03:56:00,59.5,33.9,29.80,NW,324,1.0,2.0,38,0.00,,,0.00,Wunderground v.1.15,2013-05-19 09:56:00,
2013-05-19 04:02:00,59.5,33.9,29.80,NNE,13,2.0,2.0,38,0.00,,,0.00,Wunderground v.1.15,2013-05-19 10:02:00,
2013-05-19 04:11:00,59.3,33.7,29.80,WNW,297,1.0,1.0,38,0.00,,,0.00,Wunderground v.1.15,2013-05-19 10:11:00,
2013-05-19 04:16:00,59.3,33.7,29.80,NNW,337,1.0,3.0,38,0.00,,,0.00,Wunderground v.1.15,2013-05-19 10:16:00,
2013-05-19 04:26:00,59.1,34.1,29.80,WSW,240,0.0,1.0,39,0.00,,,0.00,Wunderground v.1.15,2013-05-19 10:26:00,
2013-05-19 04:31:00,58.9,33.3,29.80,West,272,0.0,2.0,38,0.00,,,0.00,Wunderground v.1.15,2013-05-19 10:31:00,
2013-05-19 04:41:00,58.8,33.9,29.80,WSW,253,1.0,1.0,39,0.00,,,0.00,Wunderground v.1.15,2013-05-19 10:41:00,
2013-05-19 04:51:00,58.4,33.5,29.80,West,270,0.0,0.0,39,0.00,,,0.00,Wunderground v.1.15,2013-05-19 10:51:00,
2013-05-19 05:01:00,58.2,34.0,29.80,West,259,0.0,0.0,40,0.00,,,0.00,Wunderground v.1.15,2013-05-19 11:01:00,
2013-05-19 05:11:00,57.8,34.2,29.80,West,259,0.0,0.0,41,0.00,,,0.00,Wunderground v.1.15,2013-05-19 11:11:00,
2013-05-19 05:21:00,57.0,34.1,29.80,West,260,0.0,0.0,42,0.00,,,0.00,Wunderground v.1.15,2013-05-19 11:21:00,
2013-05-19 05:26:00,56.8,33.9,29.80,West,260,0.0,0.0,42,0.00,,,0.00,Wunderground v.1.15,2013-05-19 11:26:00,
2013-05-19 05:36:00,56.7,35.0,29.80,West,260,0.0,0.0,44,0.00,,,0.00,Wunderground v.1.15,2013-05-19 11:36:00,
2013-05-19 05:41:00,56.6,34.3,29.80,West,260,0.0,0.0,43,0.00,,,0.00,Wunderground v.1.15,2013-05-19 11:41:00,
2013-05-19 05:46:00,56.5,34.3,29.80,West,260,0.0,0.0,43,0.00,,,0.00,Wunderground v.1.15,2013-05-19 11:46:00,
2013-05-19 05:56:00,56.1,34.5,29.81,West,260,0.0,0.0,44,0.00,,,0.00,Wunderground v.1.15,2013-05-19 11:56:00,
2013-05-19 06:01:00,55.9,34.3,29.81,West,260,0.0,0.0,44,0.00,,,0.00,Wunderground v.1.15,2013-05-19 12:01:00,
2013-05-19 06:11:00,55.5,35.0,29.82,West,259,0.0,0.0,46,0.00,,,0.00,Wunderground v.1.15,2013-05-19 12:11:00,
2013-05-19 06:16:00,55.5,34.5,29.82,West,259,0.0,0.0,45,0.00,,,0.00,Wunderground v.1.15,2013-05-19 12:16:00,
2013-05-19 06:26:00,55.6,35.7,29.83,West,260,0.0,0.0,47,0.00,,,0.00,Wunderground v.1.15,2013-05-19 12:26:00,
2013-05-19 06:36:00,56.4,35.9,29.83,West,278,1.0,1.0,46,0.00,,,0.00,Wunderground v.1.15,2013-05-19 12:36:00,
2013-05-19 06:41:00,56.9,35.2,29.83,NNE,12,2.0,2.0,44,0.00,,,0.00,Wunderground v.1.15,2013-05-19 12:41:00,
2013-05-19 06:51:00,56.8,35.1,29.84,NE,56,3.0,3.0,44,0.00,,,0.00,Wunderground v.1.15,2013-05-19 12:51:00,
2013-05-19 06:56:00,56.8,35.1,29.84,North,5,3.0,3.0,44,0.00,,,0.00,Wunderground v.1.15,2013-05-19 12:56:00,
2013-05-19 07:02:00,56.7,35.0,29.84,NNW,331,2.0,2.0,44,0.00,,,0.00,Wunderground v.1.15,2013-05-19 13:02:00,
2013-05-19 07:11:00,56.6,34.9,29.84,NNE,18,2.0,3.0,44,0.00,,,0.00,Wunderground v.1.15,2013-05-19 13:11:00,
2013-05-19 07:16:00,56.5,35.4,29.84,NNW,339,2.0,3.0,45,0.00,,,0.00,Wunderground v.1.15,2013-05-19 13:16:00,
2013-05-19 07:26:00,56.3,35.8,29.84,North,357,0.0,1.0,46,0.00,,,0.00,Wunderground v.1.15,2013-05-19 13:26:00,
2013-05-19 07:31:00,56.5,35.4,29.84,NNE,29,0.0,3.0,45,0.00,,,0.00,Wunderground v.1.15,2013-05-19 13:31:00,
2013-05-19 07:36:00,56.8,35.7,29.84,NE,35,0.0,3.0,45,0.00,,,0.00,Wunderground v.1.15,2013-05-19 13:36:00,
2013-05-19 07:46:00,57.8,35.4,29.84,North,8,1.0,1.0,43,0.00,,,0.00,Wunderground v.1.15,2013-05-19 13:46:00,
2013-05-19 07:56:00,58.5,35.5,29.84,SSE,150,0.0,1.0,42,0.00,,,0.00,Wunderground v.1.15,2013-05-19 13:56:00,
2013-05-19 08:02:00,58.9,35.8,29.84,WSW,257,0.0,2.0,42,0.00,,,0.00,Wunderground v.1.15,2013-05-19 14:02:00,
2013-05-19 08:11:00,59.5,34.5,29.84,West,260,2.0,3.0,39,0.00,,,0.00,Wunderground v.1.15,2013-05-19 14:11:00,
2013-05-19 08:21:00,59.2,33.6,29.83,WSW,239,1.0,1.0,38,0.00,,,0.00,Wunderground v.1.15,2013-05-19 14:21:00,
2013-05-19 08:31:00,59.8,34.1,29.84,WNW,294,1.0,1.0,38,0.00,,,0.00,Wunderground v.1.15,2013-05-19 14:31:00,
2013-05-19 08:36:00,60.0,32.9,29.84,West,280,1.0,3.0,36,0.00,,,0.00,Wunderground v.1.15,2013-05-19 14:36:00,
2013-05-19 08:46:00,60.4,33.3,29.84,NNW,331,2.0,3.0,36,0.00,,,0.00,Wunderground v.1.15,2013-05-19 14:46:00,
2013-05-19 08:51:00,60.6,32.8,29.85,NNW,340,4.0,6.0,35,0.00,,,0.00,Wunderground v.1.15,2013-05-19 14:51:00,
2013-05-19 09:02:00,60.8,33.7,29.85,NNW,348,3.0,3.0,36,0.00,,,0.00,Wunderground v.1.15,2013-05-19 15:02:00,
2013-05-19 09:11:00,60.8,34.3,29.85,NW,315,3.0,3.0,37,0.00,,,0.00,Wunderground v.1.15,2013-05-19 15:11:00,
2013-05-19 09:16:00,61.2,34.0,29.85,North,9,2.0,6.0,36,0.00,,,0.00,Wunderground v.1.15,2013-05-19 15:16:00,
2013-05-19 09:26:00,62.5,33.7,29.84,NNW,345,3.0,4.0,34,0.00,,,0.00,Wunderground v.1.15,2013-05-19 15:26:00,
2013-05-19 09:36:00,63.2,34.3,29.84,NNE,22,4.0,4.0,34,0.00,,,0.00,Wunderground v.1.15,2013-05-19 15:36:00,
2013-05-19 09:41:00,63.4,33.0,29.84,WNW,301,3.0,3.0,32,0.00,,,0.00,Wunderground v.1.15,2013-05-19 15:41:00,
2013-05-19 09:51:00,64.0,32.7,29.83,NW,323,4.0,4.0,31,0.00,,,0.00,Wunderground v.1.15,2013-05-19 15:51:00,
2013-05-19 09:56:00,64.5,33.2,29.83,NW,325,3.0,4.0,31,0.00,,,0.00,Wunderground v.1.15,2013-05-19 15:56:00,
2013-05-19 10:01:00,64.6,33.3,29.83,WNW,288,1.0,1.0,31,0.00,,,0.00,Wunderground v.1.15,2013-05-19 16:01:00,
2013-05-19 10:11:00,65.5,32.4,29.83,SW,217,2.0,2.0,29,0.00,,,0.00,Wunderground v.1.15,2013-05-19 16:11:00,
2013-05-19 10:16:00,66.1,32.9,29.82,West,264,3.0,3.0,29,0.00,,,0.00,Wunderground v.1.15,2013-05-19 16:16:00,
2013-05-19 10:26:00,65.7,31.7,29.83,NNW,344,4.0,7.0,28,0.00,,,0.00,Wunderground v.1.15,2013-05-19 16:26:00,
2013-05-19 10:31:00,65.9,32.7,29.82,WNW,283,4.0,4.0,29,0.00,,,0.00,Wunderground v.1.15,2013-05-19 16:31:00,
2013-05-19 10:41:00,66.7,31.6,29.82,NW,311,5.0,5.0,27,0.00,,,0.00,Wunderground v.1.15,2013-05-19 16:41:00,
2013-05-19 10:46:00,66.7,31.6,29.82,West,260,5.0,5.0,27,0.00,,,0.00,Wunderground v.1.15,2013-05-19 16:46:00,
2013-05-19 10:51:00,66.7,31.6,29.82,WNW,283,4.0,4.0,27,0.00,,,0.00,Wunderground v.1.15,2013-05-19 16:51:00,
2013-05-19 11:02:00,67.5,31.4,29.81,WNW,300,5.0,5.0,26,0.00,,,0.00,Wunderground v.1.15,2013-05-19 17:02:00,
2013-05-19 11:11:00,67.2,31.1,29.81,NW,319,4.0,5.0,26,0.00,,,0.00,Wunderground v.1.15,2013-05-19 17:11:00,
2013-05-19 11:16:00,67.0,30.0,29.82,WSW,257,4.0,5.0,25,0.00,,,0.00,Wunderground v.1.15,2013-05-19 17:16:00,
2013-05-19 11:26:00,67.9,30.8,29.81,SSW,208,3.0,5.0,25,0.00,,,0.00,Wunderground v.1.15,2013-05-19 17:26:00,
2013-05-19 11:31:00,68.1,30.9,29.81,NW,315,4.0,6.0,25,0.00,,,0.00,Wunderground v.1.15,2013-05-19 17:31:00,
2013-05-19 11:41:00,67.7,30.6,29.80,NW,323,4.0,5.0,25,0.00,,,0.00,Wunderground v.1.15,2013-05-19 17:41:00,
2013-05-19 11:51:00,67.6,30.5,29.80,West,271,3.0,4.0,25,0.00,,,0.00,Wunderground v.1.15,2013-05-19 17:51:00,
2013-05-19 11:56:00,67.5,29.4,29.80,WNW,303,3.0,7.0,24,0.00,,,0.00,Wunderground v.1.15,2013-05-19 17:56:00,
2013-05-19 12:01:00,67.4,30.3,29.80,WNW,288,5.0,5.0,25,0.00,,,0.00,Wunderground v.1.15,2013-05-19 18:01:00,
2013-05-19 12:11:00,67.7,28.5,29.79,SE,124,3.0,3.0,23,0.00,,,0.00,Wunderground v.1.15,2013-05-19 18:11:00,
2013-05-19 12:16:00,68.9,30.6,29.79,NW,312,3.0,6.0,24,0.00,,,0.00,Wunderground v.1.15,2013-05-19 18:16:00,
2013-05-19 12:21:00,68.9,28.5,29.79,NW,319,3.0,5.0,22,0.00,,,0.00,Wunderground v.1.15,2013-05-19 18:21:00,
2013-05-19 12:36:00,69.3,28.8,29.79,NW,326,2.0,5.0,22,0.00,,,0.00,Wunderground v.1.15,2013-05-19 18:36:00,
2013-05-19 12:41:00,68.6,28.2,29.78,WSW,250,3.0,3.0,22,0.00,,,0.00,Wunderground v.1.15,2013-05-19 18:41:00,
2013-05-19 12:51:00,69.2,29.8,29.78,ESE,123,2.0,2.0,23,0.00,,,0.00,Wunderground v.1.15,2013-05-19 18:51:00,
2013-05-19 13:02:00,70.1,29.5,29.77,NNW,345,1.0,2.0,22,0.00,,,0.00,Wunderground v.1.15,2013-05-19 19:02:00,
2013-05-19 13:11:00,70.8,23.8,29.77,WNW,287,3.0,3.0,17,0.00,,,0.00,Wunderground v.1.15,2013-05-19 19:11:00,
2013-05-19 13:16:00,71.5,21.4,29.76,SW,222,4.0,4.0,15,0.00,,,0.00,Wunderground v.1.15,2013-05-19 19:16:00,
2013-05-19 13:26:00,71.6,23.0,29.76,SW,224,4.0,4.0,16,0.00,,,0.00,Wunderground v.1.15,2013-05-19 19:26:00,
2013-05-19 13:36:00,71.8,21.6,29.76,North,349,6.0,11.0,15,0.00,,,0.00,Wunderground v.1.15,2013-05-19 19:36:00,
2013-05-19 13:46:00,71.1,19.4,29.76,WNW,301,8.0,22.0,14,0.00,,,0.00,Wunderground v.1.15,2013-05-19 19:46:00,
2013-05-19 13:51:00,71.1,17.7,29.76,WNW,302,8.0,8.0,13,0.00,,,0.00,Wunderground v.1.15,2013-05-19 19:51:00,
2013-05-19 14:02:00,72.1,18.5,29.75,WSW,255,7.0,8.0,13,0.00,,,0.00,Wunderground v.1.15,2013-05-19 20:02:00,
2013-05-19 14:11:00,72.1,20.2,29.75,North,11,6.0,6.0,14,0.00,,,0.00,Wunderground v.1.15,2013-05-19 20:11:00,
2013-05-19 14:16:00,72.8,22.4,29.75,West,262,6.0,6.0,15,0.00,,,0.00,Wunderground v.1.15,2013-05-19 20:16:00,
2013-05-19 14:26:00,73.8,19.8,29.75,NW,324,6.0,8.0,13,0.00,,,0.00,Wunderground v.1.15,2013-05-19 20:26:00,
2013-05-19 14:36:00,73.4,21.3,29.75,WSW,243,7.0,16.0,14,0.00,,,0.00,Wunderground v.1.15,2013-05-19 20:36:00,
2013-05-19 14:46:00,74.3,22.0,29.75,ESE,105,7.0,7.0,14,0.00,,,0.00,Wunderground v.1.15,2013-05-19 20:46:00,
2013-05-19 14:56:00,74.0,23.4,29.75,West,271,6.0,11.0,15,0.00,,,0.00,Wunderground v.1.15,2013-05-19 20:56:00,
2013-05-19 15:01:00,72.7,22.3,29.75,NW,309,6.0,6.0,15,0.00,,,0.00,Wunderground v.1.15,2013-05-19 21:01:00,
2013-05-19 15:11:00,71.6,21.5,29.75,NW,321,7.0,7.0,15,0.00,,,0.00,Wunderground v.1.15,2013-05-19 21:11:00,
2013-05-19 15:16:00,71.5,22.9,29.74,SSW,198,6.0,7.0,16,0.00,,,0.00,Wunderground v.1.15,2013-05-19 21:16:00,
2013-05-19 15:21:00,72.3,23.6,29.74,WSW,239,5.0,6.0,16,0.00,,,0.00,Wunderground v.1.15,2013-05-19 21:21:00,
2013-05-19 15:31:00,71.8,23.2,29.74,NNE,31,8.0,8.0,16,0.00,,,0.00,Wunderground v.1.15,2013-05-19 21:31:00,
2013-05-19 15:41:00,71.3,24.2,29.74,West,280,6.0,8.0,17,0.00,,,0.00,Wunderground v.1.15,2013-05-19 21:41:00,
2013-05-19 15:51:00,71.3,24.2,29.74,NW,308,6.0,6.0,17,0.00,,,0.00,Wunderground v.1.15,2013-05-19 21:51:00,
2013-05-19 15:56:00,71.9,24.7,29.74,NW,304,7.0,7.0,17,0.00,,,0.00,Wunderground v.1.15,2013-05-19 21:56:00,
2013-05-19 16:01:00,71.6,24.4,29.74,West,276,7.0,7.0,17,0.00,,,0.00,Wunderground v.1.15,2013-05-19 22:01:00,
2013-05-19 16:11:00,71.4,25.7,29.75,NW,323,9.0,9.0,18,0.00,,,0.00,Wunderground v.1.15,2013-05-19 22:11:00,
2013-05-19 16:16:00,70.8,25.2,29.75,WNW,290,8.0,9.0,18,0.00,,,0.00,Wunderground v.1.15,2013-05-19 22:16:00,
2013-05-19 16:26:00,71.1,26.7,29.75,WSW,242,6.0,10.0,19,0.00,,,0.00,Wunderground v.1.15,2013-05-19 22:26:00,
2013-05-19 16:31:00,71.4,25.7,29.74,WNW,295,8.0,8.0,18,0.00,,,0.00,Wunderground v.1.15,2013-05-19 22:31:00,
2013-05-19 16:41:00,71.6,27.1,29.74,WSW,243,7.0,7.0,19,0.00,,,0.00,Wunderground v.1.15,2013-05-19 22:41:00,
2013-05-19 16:46:00,72.3,27.7,29.74,NW,325,7.0,9.0,19,0.00,,,0.00,Wunderground v.1.15,2013-05-19 22:46:00,
2013-05-19 16:56:00,71.2,25.5,29.74,West,280,9.0,13.0,18,0.00,,,0.00,Wunderground v.1.15,2013-05-19 22:56:00,
2013-05-19 17:01:00,71.2,25.5,29.74,NNW,337,9.0,13.0,18,0.00,,,0.00,Wunderground v.1.15,2013-05-19 23:01:00,
2013-05-19 17:11:00,70.3,24.8,29.75,NNW,335,12.0,12.0,18,0.00,,,0.00,Wunderground v.1.15,2013-05-19 23:11:00,
2013-05-19 17:16:00,70.4,26.1,29.75,North,5,12.0,12.0,19,0.00,,,0.00,Wunderground v.1.15,2013-05-19 23:16:00,
2013-05-19 17:21:00,70.5,26.2,29.75,NNW,340,12.0,12.0,19,0.00,,,0.00,Wunderground v.1.15,2013-05-19 23:21:00,
2013-05-19 17:26:00,70.3,26.1,29.75,West,278,12.0,12.0,19,0.00,,,0.00,Wunderground v.1.15,2013-05-19 23:26:00,
2013-05-19 17:36:00,70.4,26.1,29.76,NNW,348,9.0,10.0,19,0.00,,,0.00,Wunderground v.1.15,2013-05-19 23:36:00,
2013-05-19 17:46:00,70.1,27.1,29.76,NNW,340,9.0,11.0,20,0.00,,,0.00,Wunderground v.1.15,2013-05-19 23:46:00,
2013-05-19 17:56:00,69.8,26.9,29.75,West,264,8.0,9.0,20,0.00,,,0.00,Wunderground v.1.15,2013-05-19 23:56:00,
2013-05-19 18:02:00,70.2,26.0,29.75,NNW,332,6.0,13.0,19,0.00,,,0.00,Wunderground v.1.15,2013-05-20 00:02:00,
2013-05-19 18:11:00,70.2,26.0,29.75,NW,326,8.0,8.0,19,0.00,,,0.00,Wunderground v.1.15,2013-05-20 00:11:00,
2013-05-19 18:16:00,70.4,24.8,29.75,NNW,346,8.0,14.0,18,0.00,,,0.00,Wunderground v.1.15,2013-05-20 00:16:00,
2013-05-19 18:21:00,70.1,24.6,29.75,NW,322,8.0,8.0,18,0.00,,,0.00,Wunderground v.1.15,2013-05-20 00:21:00,
2013-05-19 18:26:00,70.0,23.1,29.75,NNW,333,8.0,10.0,17,0.00,,,0.00,Wunderground v.1.15,2013-05-20 00:26:00,
2013-05-19 18:36:00,69.8,23.0,29.74,WNW,293,9.0,9.0,17,0.00,,,0.00,Wunderground v.1.15,2013-05-20 00:36:00,
2013-05-19 18:46:00,70.3,23.4,29.75,NNW,328,9.0,13.0,17,0.00,,,0.00,Wunderground v.1.15,2013-05-20 00:46:00,
2013-05-19 18:56:00,70.7,23.7,29.75,West,280,6.0,9.0,17,0.00,,,0.00,Wunderground v.1.15,2013-05-20 00:56:00,
2013-05-19 19:02:00,70.3,21.9,29.75,NNE,20,7.0,7.0,16,0.00,,,0.00,Wunderground v.1.15,2013-05-20 01:02:00,
2013-05-19 19:11:00,69.2,22.5,29.75,WSW,253,7.0,7.0,17,0.00,,,0.00,Wunderground v.1.15,2013-05-20 01:11:00,
2013-05-19 19:21:00,69.6,22.8,29.75,NW,305,7.0,7.0,17,0.00,,,0.00,Wunderground v.1.15,2013-05-20 01:21:00,
2013-05-19 19:26:00,69.2,22.5,29.75,North,355,7.0,8.0,17,0.00,,,0.00,Wunderground v.1.15,2013-05-20 01:26:00,
2013-05-19 19:31:00,68.8,23.5,29.75,NNE,15,7.0,10.0,18,0.00,,,0.00,Wunderground v.1.15,2013-05-20 01:31:00,
2013-05-19 19:41:00,68.1,24.2,29.76,NNW,342,9.0,9.0,19,0.00,,,0.00,Wunderground v.1.15,2013-05-20 01:41:00,
2013-05-19 19:51:00,67.5,25.0,29.76,NNE,21,10.0,14.0,20,0.00,,,0.00,Wunderground v.1.15,2013-05-20 01:51:00,
2013-05-19 20:02:00,67.0,26.9,29.77,NNW,340,11.0,12.0,22,0.00,,,0.00,Wunderground v.1.15,2013-05-20 02:02:00,
2013-05-19 20:11:00,66.4,26.4,29.76,NNE,12,9.0,10.0,22,0.00,,,0.00,Wunderground v.1.15,2013-05-20 02:11:00,
2013-05-19 20:16:00,66.1,27.2,29.76,North,350,8.0,10.0,23,0.00,,,0.00,Wunderground v.1.15,2013-05-20 02:16:00,
2013-05-19 20:26:00,65.8,25.9,29.76,NNW,342,9.0,11.0,22,0.00,,,0.00,Wunderground v.1.15,2013-05-20 02:26:00,
2013-05-19 20:31:00,65.2,27.5,29.77,North,8,12.0,17.0,24,0.00,,,0.00,Wunderground v.1.15,2013-05-20 02:31:00,
2013-05-19 20:41:00,63.9,28.3,29.77,NNW,339,12.0,12.0,26,0.00,,,0.00,Wunderground v.1.15,2013-05-20 02:41:00,
2013-05-19 20:46:00,63.2,29.5,29.77,NNW,328,12.0,12.0,28,0.00,,,0.00,Wunderground v.1.15,2013-05-20 02:46:00,
2013-05-19 20:56:00,62.5,29.8,29.77,NW,312,10.0,11.0,29,0.00,,,0.00,Wunderground v.1.15,2013-05-20 02:56:00,
2013-05-19 21:01:00,62.4,29.7,29.78,NNW,345,10.0,10.0,29,0.00,,,0.00,Wunderground v.1.15,2013-05-20 03:01:00,
2013-05-19 21:11:00,62.2,30.4,29.78,NNE,13,9.0,9.0,30,0.00,,,0.00,Wunderground v.1.15,2013-05-20 03:11:00,
2013-05-19 21:16:00,62.2,29.5,29.78,NNW,330,9.0,9.0,29,0.00,,,0.00,Wunderground v.1.15,2013-05-20 03:16:00,
2013-05-19 21:21:00,62.2,30.4,29.79,NNE,22,8.0,8.0,30,0.00,,,0.00,Wunderground v.1.15,2013-05-20 03:21:00,
2013-05-19 21:31:00,62.1,30.3,29.78,NNW,340,11.0,13.0,30,0.00,,,0.00,Wunderground v.1.15,2013-05-20 03:31:00,
2013-05-19 21:36:00,62.1,30.3,29.79,NNE,15,11.0,20.0,30,0.00,,,0.00,Wunderground v.1.15,2013-05-20 03:36:00,
2013-05-19 21:41:00,62.0,30.2,29.80,NW,326,10.0,10.0,30,0.00,,,0.00,Wunderground v.1.15,2013-05-20 03:41:00,
2013-05-19 21:51:00,61.9,30.1,29.80,NNW,347,7.0,7.0,30,0.00,,,0.00,Wunderground v.1.15,2013-05-20 03:51:00,
2013-05-19 22:01:00,61.9,30.1,29.80,NNE,14,7.0,13.0,30,0.00,,,0.00,Wunderground v.1.15,2013-05-20 04:01:00,
2013-05-19 22:06:00,62.0,30.2,29.80,NNW,335,8.0,13.0,30,0.00,,,0.00,Wunderground v.1.15,2013-05-20 04:06:00,
2013-05-19 22:16:00,61.9,30.1,29.80,North,349,7.0,8.0,30,0.00,,,0.00,Wunderground v.1.15,2013-05-20 04:16:00,
2013-05-19 22:26:00,61.9,30.1,29.81,NNE,22,7.0,7.0,30,0.00,,,0.00,Wunderground v.1.15,2013-05-20 04:26:00,
2013-05-19 22:36:00,62.0,29.3,29.81,NNW,342,8.0,9.0,29,0.00,,,0.00,Wunderground v.1.15,2013-05-20 04:36:00,
2013-05-19 22:46:00,61.9,29.3,29.81,North,360,7.0,16.0,29,0.00,,,0.00,Wunderground v.1.15,2013-05-20 04:46:00,
2013-05-19 22:51:00,61.9,29.3,29.81,NW,304,7.0,10.0,29,0.00,,,0.00,Wunderground v.1.15,2013-05-20 04:51:00,
2013-05-19 23:02:00,61.8,29.2,29.81,NNW,327,8.0,8.0,29,0.00,,,0.00,Wunderground v.1.15,2013-05-20 05:02:00,
2013-05-19 23:11:00,61.7,29.9,29.82,NW,323,8.0,8.0,30,0.00,,,0.00,Wunderground v.1.15,2013-05-20 05:11:00,
2013-05-19 23:21:00,61.6,30.6,29.83,NNW,348,9.0,15.0,31,0.00,,,0.00,Wunderground v.1.15,2013-05-20 05:21:00,
2013-05-19 23:31:00,60.8,32.2,29.83,NNW,328,10.0,10.0,34,0.00,,,0.00,Wunderground v.1.15,2013-05-20 05:31:00,
2013-05-19 23:37:00,60.6,32.1,29.83,NW,305,8.0,10.0,34,0.00,,,0.00,Wunderground v.1.15,2013-05-20 05:37:00,
2013-05-19 23:41:00,60.5,32.7,29.84,North,10,7.0,9.0,35,0.00,,,0.00,Wunderground v.1.15,2013-05-20 05:41:00,
2013-05-19 23:51:00,60.2,32.4,29.83,NW,323,6.0,9.0,35,0.00,,,0.00,Wunderground v.1.15,2013-05-20 05:51:00,